| time (UTC) | temp F | wind direction | speed MPH | gust MPH | rain 1hr in | rain 24hr in | rain mn in | humidity % | barometer mb |
| 20260503203509 | 75 | 159 | 0.0 | 10.0 | 0.00 | 0.00 | 0.00 | 17 | 1006.3 |
| 20260503203020 | 75 | 22 | 2.0 | 10.0 | 0.00 | 0.00 | 0.00 | 19 | 1006.3 |
| 20260503202509 | 75 | 244 | 2.0 | 15.0 | 0.00 | 0.00 | 0.00 | 19 | 1006.5 |
| 20260503202009 | 75 | 187 | 2.0 | 22.0 | 0.00 | 0.00 | 0.00 | 19 | 1006.5 |
| 20260503201510 | 76 | 340 | 4.0 | 13.0 | 0.00 | 0.00 | 0.00 | 15 | 1006.1 |
| 20260503201011 | 76 | 232 | 1.0 | 15.0 | 0.00 | 0.00 | 0.00 | 17 | 1006.7 |
| 20260503200506 | 76 | 190 | 1.0 | 3.0 | 0.00 | 0.00 | 0.00 | 13 | 1006.7 |
| 20260503200006 | 76 | 204 | 1.0 | 3.0 | 0.00 | 0.00 | 0.00 | 12 | 1006.8 |
| 20260503195506 | 75 | 163 | 0.0 | 8.0 | 0.00 | 0.00 | 0.00 | 14 | 1006.8 |
| 20260503195005 | 76 | 183 | 3.0 | 8.0 | 0.00 | 0.00 | 0.00 | 13 | 1006.9 |
| 20260503194506 | 75 | 156 | 2.0 | 9.0 | 0.00 | 0.00 | 0.00 | 14 | 1007.0 |
| 20260503194003 | 75 | 109 | 0.0 | 9.0 | 0.00 | 0.00 | 0.00 | 15 | 1007.1 |
| 20260503193503 | 75 | 150 | 2.0 | 9.0 | 0.00 | 0.00 | 0.00 | 17 | 1007.1 |
| 20260503193003 | 75 | 153 | 1.0 | 10.0 | 0.00 | 0.00 | 0.00 | 15 | 1007.3 |
| 20260503192502 | 76 | 138 | 1.0 | 7.0 | 0.00 | 0.00 | 0.00 | 15 | 1007.3 |
| 20260503192100 | 76 | 120 | 1.0 | 9.0 | 0.00 | 0.00 | 0.00 | 17 | 1007.3 |
| 20260503191609 | 75 | 132 | 2.0 | 9.0 | 0.00 | 0.00 | 0.00 | 16 | 1007.4 |
| 20260503191057 | 74 | 88 | 1.0 | 3.0 | 0.00 | 0.00 | 0.00 | 18 | 1007.6 |
| 20260503190556 | 73 | 190 | 0.0 | 5.0 | 0.00 | 0.00 | 0.00 | 15 | 1007.6 |
| 20260503190058 | 73 | 155 | 1.0 | 5.0 | 0.00 | 0.00 | 0.00 | 19 | 1007.8 |
| 20260503185555 | 73 | 97 | 1.0 | 7.0 | 0.00 | 0.00 | 0.00 | 18 | 1007.7 |
| 20260503185058 | 73 | 65 | 0.0 | 4.0 | 0.00 | 0.00 | 0.00 | 16 | 1007.8 |
| 20260503184607 | 73 | 191 | 1.0 | 4.0 | 0.00 | 0.00 | 0.00 | 19 | 1007.8 |
| 20260503184055 | 73 | 216 | 1.0 | 4.0 | 0.00 | 0.00 | 0.00 | 16 | 1007.9 |
| 20260503183555 | 73 | 151 | 0.0 | 5.0 | 0.00 | 0.00 | 0.00 | 16 | 1008.1 |
| 20260503183107 | 73 | 140 | 0.0 | 7.0 | 0.00 | 0.00 | 0.00 | 18 | 1008.1 |
| 20260503182556 | 73 | 113 | 1.0 | 7.0 | 0.00 | 0.00 | 0.00 | 17 | 1008.2 |
| 20260503182053 | 73 | 156 | 1.0 | 6.0 | 0.00 | 0.00 | 0.00 | 16 | 1008.2 |
| 20260503181607 | 73 | 172 | 2.0 | 9.0 | 0.00 | 0.00 | 0.00 | 15 | 1008.2 |
| 20260503181052 | 73 | 167 | 2.0 | 9.0 | 0.00 | 0.00 | 0.00 | 15 | 1008.3 |
| 20260503180551 | 74 | 157 | 1.0 | 6.0 | 0.00 | 0.00 | 0.00 | 15 | 1008.3 |
| 20260503180051 | 74 | 176 | 1.0 | 6.0 | 0.00 | 0.00 | 0.00 | 15 | 1008.3 |
| 20260503175549 | 73 | 152 | 3.0 | 7.0 | 0.00 | 0.00 | 0.00 | 16 | 1008.4 |
| 20260503175051 | 73 | 150 | 1.0 | 4.0 | 0.00 | 0.00 | 0.00 | 16 | 1008.4 |
| 20260503174549 | 74 | 160 | 2.0 | 8.0 | 0.00 | 0.00 | 0.00 | 16 | 1008.5 |
| 20260503174048 | 73 | 190 | 2.0 | 8.0 | 0.00 | 0.00 | 0.00 | 17 | 1008.5 |
| 20260503173549 | 73 | 173 | 2.0 | 5.0 | 0.00 | 0.00 | 0.00 | 17 | 1008.6 |
| 20260503173057 | 72 | 170 | 1.0 | 4.0 | 0.00 | 0.00 | 0.00 | 17 | 1008.6 |
| 20260503172546 | 72 | 186 | 1.0 | 6.0 | 0.00 | 0.00 | 0.00 | 18 | 1008.7 |
| 20260503172044 | 72 | 161 | 2.0 | 6.0 | 0.00 | 0.00 | 0.00 | 17 | 1008.8 |
| 20260503171543 | 72 | 184 | 1.0 | 8.0 | 0.00 | 0.00 | 0.00 | 18 | 1008.8 |
| 20260503171041 | 72 | 105 | 2.0 | 8.0 | 0.00 | 0.00 | 0.00 | 18 | 1008.8 |
| 20260503170541 | 72 | 164 | 1.0 | 3.0 | 0.00 | 0.00 | 0.00 | 18 | 1008.9 |
| 20260503150516 | 63 | 162 | 2.0 | 6.0 | 0.00 | 0.00 | 0.00 | 27 | 1009.8 |
| 20260503131058 | 51 | 360 | 1.0 | 2.0 | 0.00 | 0.00 | 0.00 | 44 | 1009.7 |
| 20260503130555 | 52 | 360 | 1.0 | 2.0 | 0.00 | 0.00 | 0.00 | 42 | 1009.7 |
| 20260503110540 | 50 | 126 | 0.0 | 2.0 | 0.00 | 0.00 | 0.00 | 44 | 1010.2 |
| 20260503081533 | 51 | 157 | 0.0 | 2.0 | 0.00 | 0.00 | 0.00 | 44 | 1010.8 |
| 20260503081026 | 51 | 157 | 0.0 | 0.0 | 0.00 | 0.00 | 0.00 | 45 | 1010.7 |
| 20260503080525 | 51 | 157 | 0.0 | 0.0 | 0.00 | 0.00 | 0.00 | 46 | 1010.7 |
| 20260503072517 | 54 | 157 | 0.0 | 0.0 | 0.00 | 0.00 | 0.00 | 39 | 1010.7 |
| 20260503072016 | 55 | 157 | 0.0 | 0.0 | 0.00 | 0.00 | 0.00 | 38 | 1010.6 |
| 20260503071519 | 56 | 157 | 0.0 | 0.0 | 0.00 | 0.00 | 0.00 | 36 | 1010.7 |
| 20260503071014 | 57 | 157 | 0.0 | 0.0 | 0.00 | 0.00 | 0.00 | 35 | 1010.6 |
| 20260503070515 | 57 | 157 | 0.0 | 1.0 | 0.00 | 0.00 | 0.00 | 34 | 1010.6 |
| 20260503055004 | 56 | 157 | 0.0 | 2.0 | 0.00 | 0.00 | 0.00 | 37 | 1010.6 |
| 20260503054512 | 57 | 157 | 0.0 | 3.0 | 0.00 | 0.00 | 0.00 | 36 | 1010.7 |
| 20260503054009 | 57 | 157 | 1.0 | 3.0 | 0.00 | 0.00 | 0.00 | 35 | 1010.6 |
| 20260503053506 | 57 | 157 | 0.0 | 0.0 | 0.00 | 0.00 | 0.00 | 35 | 1010.6 |
| 20260503053005 | 58 | 157 | 0.0 | 2.0 | 0.00 | 0.00 | 0.00 | 34 | 1010.6 |
| 20260503052506 | 58 | 157 | 0.0 | 2.0 | 0.00 | 0.00 | 0.00 | 34 | 1010.6 |
| 20260503052004 | 58 | 157 | 0.0 | 2.0 | 0.00 | 0.00 | 0.00 | 33 | 1010.7 |
| 20260503051504 | 59 | 158 | 0.0 | 3.0 | 0.00 | 0.00 | 0.00 | 32 | 1010.7 |
| 20260503051003 | 60 | 158 | 1.0 | 3.0 | 0.00 | 0.00 | 0.00 | 31 | 1010.8 |
| 20260503050503 | 60 | 186 | 0.0 | 1.0 | 0.00 | 0.00 | 0.00 | 30 | 1010.8 |
| 20260503050017 | 61 | 186 | 0.0 | 0.0 | 0.00 | 0.00 | 0.00 | 30 | 1010.7 |
| 20260503045504 | 61 | 205 | 0.0 | 0.0 | 0.00 | 0.00 | 0.00 | 30 | 1010.8 |
| 20260503045005 | 61 | 205 | 0.0 | 0.0 | 0.00 | 0.00 | 0.00 | 30 | 1010.9 |
| 20260503044504 | 61 | 205 | 0.0 | 0.0 | 0.00 | 0.00 | 0.00 | 30 | 1010.9 |
| 20260503044003 | 61 | 205 | 0.0 | 0.0 | 0.00 | 0.00 | 0.00 | 30 | 1011.0 |
| 20260503043503 | 61 | 205 | 0.0 | 1.0 | 0.00 | 0.00 | 0.00 | 30 | 1010.9 |
| 20260503043002 | 61 | 205 | 0.0 | 1.0 | 0.00 | 0.00 | 0.00 | 30 | 1011.0 |
| 20260503042502 | 61 | 205 | 0.0 | 2.0 | 0.00 | 0.00 | 0.00 | 30 | 1011.0 |
| 20260503042002 | 61 | 205 | 0.0 | 2.0 | 0.00 | 0.00 | 0.00 | 30 | 1011.1 |
| 20260503041506 | 61 | 205 | 0.0 | 1.0 | 0.00 | 0.00 | 0.00 | 30 | 1011.0 |
| 20260503041002 | 62 | 213 | 0.0 | 1.0 | 0.00 | 0.00 | 0.00 | 30 | 1011.1 |
| 20260503040501 | 62 | 214 | 0.0 | 1.0 | 0.00 | 0.00 | 0.00 | 30 | 1011.0 |
| 20260503040001 | 62 | 218 | 0.0 | 2.0 | 0.00 | 0.00 | 0.00 | 29 | 1011.0 |
| 20260503035501 | 62 | 219 | 0.0 | 2.0 | 0.00 | 0.00 | 0.00 | 31 | 1011.0 |
| 20260503035001 | 62 | 223 | 0.0 | 0.0 | 0.00 | 0.00 | 0.00 | 29 | 1011.0 |
| 20260503034500 | 62 | 223 | 0.0 | 1.0 | 0.00 | 0.00 | 0.00 | 29 | 1011.0 |
| 20260503034002 | 63 | 223 | 0.0 | 2.0 | 0.00 | 0.00 | 0.00 | 29 | 1010.9 |
| 20260503033600 | 63 | 225 | 0.0 | 2.0 | 0.00 | 0.00 | 0.00 | 28 | 1010.9 |
| 20260503033140 | 63 | 224 | 0.0 | 2.0 | 0.00 | 0.00 | 0.00 | 29 | 1011.0 |
| 20260503032600 | 64 | 242 | 0.0 | 1.0 | 0.00 | 0.00 | 0.00 | 28 | 1011.0 |
| 20260503032100 | 64 | 246 | 0.0 | 1.0 | 0.00 | 0.00 | 0.00 | 28 | 1010.8 |
| 20260503031602 | 64 | 251 | 0.0 | 1.0 | 0.00 | 0.00 | 0.00 | 27 | 1010.8 |
| 20260503031100 | 65 | 252 | 0.0 | 0.0 | 0.00 | 0.00 | 0.00 | 27 | 1010.9 |
| 20260503030603 | 65 | 252 | 0.0 | 1.0 | 0.00 | 0.00 | 0.00 | 27 | 1010.9 |
| 20260503030110 | 66 | 252 | 0.0 | 3.0 | 0.00 | 0.00 | 0.00 | 27 | 1010.9 |
| 20260503025559 | 65 | 252 | 0.0 | 4.0 | 0.00 | 0.00 | 0.00 | 28 | 1010.7 |
| 20260503025059 | 65 | 260 | 1.0 | 4.0 | 0.00 | 0.00 | 0.00 | 28 | 1010.7 |
| 20260503024624 | 65 | 260 | 1.0 | 4.0 | 0.00 | 0.00 | 0.00 | 28 | 1010.6 |
| 20260503024103 | 65 | 264 | 0.0 | 2.0 | 0.00 | 0.00 | 0.00 | 28 | 1010.7 |
| 20260503023558 | 65 | 264 | 0.0 | 3.0 | 0.00 | 0.00 | 0.00 | 28 | 1010.7 |
| 20260503023107 | 65 | 264 | 0.0 | 4.0 | 0.00 | 0.00 | 0.00 | 27 | 1010.7 |
| 20260503022559 | 66 | 267 | 1.0 | 5.0 | 0.00 | 0.00 | 0.00 | 26 | 1010.6 |
| 20260503022058 | 66 | 257 | 2.0 | 5.0 | 0.00 | 0.00 | 0.00 | 26 | 1010.6 |
| 20260503021604 | 67 | 251 | 2.0 | 4.0 | 0.00 | 0.00 | 0.00 | 25 | 1010.6 |
| 20260503021058 | 67 | 304 | 0.0 | 5.0 | 0.00 | 0.00 | 0.00 | 25 | 1010.6 |
| 20260503020558 | 68 | 292 | 2.0 | 6.0 | 0.00 | 0.00 | 0.00 | 24 | 1010.6 |
| 20260503020058 | 68 | 313 | 4.0 | 6.0 | 0.00 | 0.00 | 0.00 | 23 | 1010.4 |
| 20260503015557 | 68 | 300 | 3.0 | 8.0 | 0.00 | 0.00 | 0.00 | 23 | 1010.5 |
| 20260503015056 | 69 | 335 | 5.0 | 10.0 | 0.00 | 0.00 | 0.00 | 22 | 1010.5 |
| 20260503014559 | 69 | 336 | 5.0 | 10.0 | 0.00 | 0.00 | 0.00 | 21 | 1010.6 |
| 20260503014056 | 69 | 323 | 6.0 | 10.0 | 0.00 | 0.00 | 0.00 | 21 | 1010.7 |
| 20260503013556 | 69 | 319 | 7.0 | 10.0 | 0.00 | 0.00 | 0.00 | 20 | 1010.6 |
| 20260503013055 | 70 | 306 | 5.0 | 9.0 | 0.00 | 0.00 | 0.00 | 20 | 1010.6 |
| 20260503012555 | 70 | 322 | 4.0 | 10.0 | 0.00 | 0.00 | 0.00 | 20 | 1010.6 |
| 20260503012055 | 70 | 312 | 6.0 | 10.0 | 0.00 | 0.00 | 0.00 | 21 | 1010.7 |
| 20260503011603 | 70 | 297 | 6.0 | 10.0 | 0.00 | 0.00 | 0.00 | 20 | 1010.6 |
| 20260503011053 | 70 | 307 | 4.0 | 9.0 | 0.00 | 0.00 | 0.00 | 19 | 1010.6 |
| 20260503010553 | 70 | 291 | 6.0 | 10.0 | 0.00 | 0.00 | 0.00 | 19 | 1010.6 |
| 20260503010053 | 70 | 319 | 7.0 | 10.0 | 0.00 | 0.00 | 0.00 | 19 | 1010.6 |
| 20260503005553 | 70 | 325 | 6.0 | 10.0 | 0.00 | 0.00 | 0.00 | 19 | 1010.7 |
| 20260503005052 | 71 | 291 | 4.0 | 11.0 | 0.00 | 0.00 | 0.00 | 20 | 1010.6 |
| 20260503004552 | 71 | 317 | 8.0 | 12.0 | 0.00 | 0.00 | 0.00 | 20 | 1010.7 |
| 20260503004052 | 71 | 323 | 8.0 | 14.0 | 0.00 | 0.00 | 0.00 | 19 | 1010.7 |
| 20260503003551 | 71 | 317 | 8.0 | 14.0 | 0.00 | 0.00 | 0.00 | 19 | 1010.7 |
| 20260503003051 | 71 | 316 | 9.0 | 14.0 | 0.00 | 0.00 | 0.00 | 19 | 1010.7 |
| 20260503002553 | 71 | 298 | 6.0 | 11.0 | 0.00 | 0.00 | 0.00 | 20 | 1010.8 |
| 20260503002050 | 72 | 317 | 4.0 | 12.0 | 0.00 | 0.00 | 0.00 | 18 | 1010.7 |
| 20260503001559 | 72 | 311 | 6.0 | 12.0 | 0.00 | 0.00 | 0.00 | 18 | 1010.7 |
| 20260503001048 | 72 | 313 | 5.0 | 14.0 | 0.00 | 0.00 | 0.00 | 18 | 1010.7 |
| 20260503000548 | 72 | 14 | 8.0 | 14.0 | 0.00 | 0.00 | 0.00 | 17 | 1010.7 |
| 20260503000103 | 73 | 327 | 5.0 | 10.0 | 0.00 | 0.00 | 0.00 | 18 | 1010.6 |
| 20260502235547 | 73 | 39 | 6.0 | 10.0 | 0.00 | 0.00 | 0.00 | 18 | 1010.7 |
| 20260502235048 | 73 | 40 | 1.0 | 11.0 | 0.00 | 0.00 | 0.00 | 19 | 1010.7 |
| 20260502234557 | 73 | 74 | 3.0 | 14.0 | 0.00 | 0.00 | 0.00 | 18 | 1010.7 |
| 20260502234048 | 73 | 59 | 5.0 | 12.0 | 0.00 | 0.00 | 0.00 | 18 | 1010.8 |
| 20260502233546 | 73 | 329 | 5.0 | 13.0 | 0.00 | 0.00 | 0.00 | 18 | 1010.7 |
| 20260502233101 | 74 | 355 | 7.0 | 13.0 | 0.00 | 0.00 | 0.00 | 18 | 1010.8 |
| 20260502232547 | 74 | 297 | 6.0 | 12.0 | 0.00 | 0.00 | 0.00 | 18 | 1010.9 |
| 20260502232046 | 73 | 319 | 3.0 | 12.0 | 0.00 | 0.00 | 0.00 | 18 | 1011.0 |
| 20260502231600 | 73 | 336 | 4.0 | 14.0 | 0.00 | 0.00 | 0.00 | 18 | 1011.1 |
| 20260502231046 | 74 | 262 | 7.0 | 14.0 | 0.00 | 0.00 | 0.00 | 17 | 1011.1 |
| 20260502230544 | 74 | 273 | 6.0 | 14.0 | 0.00 | 0.00 | 0.00 | 18 | 1011.3 |
| 20260502230042 | 73 | 59 | 1.0 | 14.0 | 0.00 | 0.00 | 0.00 | 16 | 1011.4 |
| 20260502225544 | 74 | 24 | 9.0 | 14.0 | 0.00 | 0.00 | 0.00 | 17 | 1011.5 |
| 20260502225041 | 74 | 321 | 8.0 | 14.0 | 0.00 | 0.00 | 0.00 | 17 | 1011.5 |
| 20260502224541 | 74 | 312 | 10.0 | 15.0 | 0.00 | 0.00 | 0.00 | 16 | 1011.6 |
| 20260502224040 | 74 | 355 | 8.0 | 15.0 | 0.00 | 0.00 | 0.00 | 18 | 1011.6 |
| 20260502223540 | 74 | 333 | 8.0 | 15.0 | 0.00 | 0.00 | 0.00 | 17 | 1011.8 |
| 20260502223046 | 74 | 281 | 7.0 | 13.0 | 0.00 | 0.00 | 0.00 | 17 | 1011.8 |
| 20260502222541 | 74 | 315 | 8.0 | 13.0 | 0.00 | 0.00 | 0.00 | 17 | 1012.0 |
| 20260502222039 | 73 | 311 | 4.0 | 13.0 | 0.00 | 0.00 | 0.00 | 18 | 1012.0 |
| 20260502221540 | 73 | 292 | 5.0 | 15.0 | 0.00 | 0.00 | 0.00 | 18 | 1012.1 |
| 20260502221037 | 74 | 322 | 10.0 | 15.0 | 0.00 | 0.00 | 0.00 | 17 | 1012.2 |
| 20260502220541 | 73 | 331 | 7.0 | 16.0 | 0.00 | 0.00 | 0.00 | 17 | 1012.3 |
| 20260502220042 | 73 | 292 | 9.0 | 19.0 | 0.00 | 0.00 | 0.00 | 17 | 1012.4 |
| 20260502215536 | 74 | 315 | 10.0 | 17.0 | 0.00 | 0.00 | 0.00 | 17 | 1012.4 |
| 20260502215035 | 74 | 336 | 10.0 | 15.0 | 0.00 | 0.00 | 0.00 | 17 | 1012.5 |
| 20260502214534 | 74 | 268 | 9.0 | 15.0 | 0.00 | 0.00 | 0.00 | 17 | 1012.7 |
| 20260502214033 | 74 | 266 | 5.0 | 21.0 | 0.00 | 0.00 | 0.00 | 18 | 1012.7 |
| 20260502213532 | 74 | 277 | 1.0 | 8.0 | 0.00 | 0.00 | 0.00 | 16 | 1012.6 |
| 20260502213038 | 74 | 79 | 0.0 | 4.0 | 0.00 | 0.00 | 0.00 | 15 | 1012.9 |
| 20260502212531 | 74 | 113 | 2.0 | 6.0 | 0.00 | 0.00 | 0.00 | 15 | 1012.9 |
| 20260502212033 | 73 | 232 | 0.0 | 6.0 | 0.00 | 0.00 | 0.00 | 14 | 1013.0 |
| 20260502211541 | 73 | 156 | 1.0 | 3.0 | 0.00 | 0.00 | 0.00 | 14 | 1013.0 |
| 20260502211032 | 73 | 164 | 1.0 | 3.0 | 0.00 | 0.00 | 0.00 | 14 | 1013.1 |
| 20260502210529 | 73 | 347 | 0.0 | 10.0 | 0.00 | 0.00 | 0.00 | 14 | 1013.2 |
| 20260502210029 | 73 | 82 | 3.0 | 10.0 | 0.00 | 0.00 | 0.00 | 15 | 1013.3 |
| 20260502205531 | 73 | 96 | 3.0 | 7.0 | 0.00 | 0.00 | 0.00 | 14 | 1013.4 |
| 20260502205027 | 73 | 159 | 2.0 | 9.0 | 0.00 | 0.00 | 0.00 | 15 | 1013.4 |
| 20260502204526 | 73 | 162 | 2.0 | 9.0 | 0.00 | 0.00 | 0.00 | 15 | 1013.4 |
| 20260502204026 | 72 | 257 | 0.0 | 10.0 | 0.00 | 0.00 | 0.00 | 14 | 1013.6 |